STARLINK-1266 (45383 NORAD) Tracking and Keplerian Element Data

This shows tracking and keplerian element data for the satellite.

Feedback or suggestion? Click here.




ElementValue
Catalog45383
NameSTARLINK-1266
Epoch Orbit175
Epoch Day193.91667824
Epoch Year2020
RAAN64.7187
Inclination53.0008
Eccentricity0.0001901
Argument of Perigee82.3367
Mean Anonmoly43.7932
Mean Motion15.0558325
Decay Rate-0.00018716
L11 45383U 20019Z 20193.91667824 -.00018716 00000-0 -12686-2 0 9993
L22 45383 53.0008 64.7187 0001901 82.3367 43.7932 15.05583250 1759

Live tracking and technical data element details for STARLINK-1266 (NORAD 45383). STARLINK-1266 can be tracked NOW for your location showing map with azimuth and elevation plus other details from your city location.

Track the satellite on the map from your city or location and see movement details for azimuth, elevation, latitude, longitude, range, height, and movement on the map or in text.







IsCatalogInMostPopularTable: catalog: 45383, numindb: 24
Update: records affected: 1



GetName: 45383 STARLINK-1266

Hit Count: updated at: Mon, 13 Jul 2020 04:21:20 GMT